[[{"header":{"parameterUnit":"m.s-1","parameterCategory":1,"la1":30.2991,"la2":30.254,"lo1":-89.0895,"lo2":-89.0444,"dy":0.0017,"dx":0.0017,"nx":28,"ny":28,"refTime":"2024-09-30T03:00:00:Z","depth":0,"parameterNumber":2,"parameterNumberName":"U-component_of_WINDS"},"data":[0,0,0,0,0,0,0,0,0,0,0,0,0,0,0,0,0,0,0,0,0,0,0,0,0,0,0,0,0,0,0,0,0,0,0,0,0,0,0,0,0,0,0,0,0,0,0,0,0,0,0,0,0,0,0,0,0,0,1.6883,1.6884,0,1.6956,1.6957,1.6958,1.6885,1.6882,1.6879,1.6876,1.6955,1.696,1.6964,0,0,0,0,0,0,0,0,0,0,0,0,0,1.6687,1.6691,1.6883,1.6884,1.6885,1.6956,1.6957,1.6958,1.6885,1.6882,1.6878,1.6875,1.6954,1.6959,1.6965,0,0,0,0,0,0,0,0,0,0,0,0,0,1.6767,1.6692,1.6883,1.6857,1.6856,1.6956,1.6957,1.6958,1.6886,1.6882,1.6877,1.6873,1.6952,1.6959,1.6966,1.7096,0,0,1.6988,1.6991,0,0,0,0,0,0,0,0,1.6763,1.6774,1.686,1.6859,1.6858,1.6907,1.6916,1.7005,1.6887,1.6875,1.6876,1.6871,1.6943,1.695,1.6974,1.71,1.7103,1.6988,1.6993,1.6996,1.6998,0,0,0,0,0,0,0,1.6757,1.6771,1.6912,1.6862,1.686,1.6844,1.685,1.6933,1.6932,1.6875,1.687,1.688,1.6941,1.6967,1.6975,1.7104,1.6988,1.6994,1.6999,1.7002,1.7343,1.7348,0,0,0,0,0,0,1.6754,1.6767,1.691,1.6914,1.6798,1.6851,1.6858,1.6895,1.6931,1.6932,1.6883,1.6876,1.6957,1.6967,1.6977,1.7133,1.6996,1.7002,1.7006,1.7338,1.7344,1.7349,0,0,0,0,0,0,1.675,1.6767,1.6907,1.6839,1.6856,1.6859,1.6901,1.6899,1.6924,1.6937,1.6937,1.6909,1.6954,1.6967,1.7067,1.7135,1.7006,1.7012,1.7333,1.734,1.7347,1.7446,0,0,0,0,0,0,1.6744,1.6766,1.6815,1.6841,1.686,1.6994,1.6905,1.6904,1.6937,1.6928,1.6961,1.6963,1.6951,1.7057,1.7074,1.7143,1.7018,1.7327,1.7336,1.7344,1.7437,1.7456,1.7472,0,0,0,0,0,1.6738,1.684,1.6817,1.6835,1.692,1.6998,1.7009,1.6993,1.6942,1.6992,1.7,1.6962,1.7125,1.7068,1.7087,1.7158,1.7322,1.7333,1.7344,1.7429,1.7452,1.7472,0,0,0,0,0,0,1.6823,1.6843,1.6818,1.6932,1.6964,1.6986,1.7048,1.7018,1.7066,1.7056,1.7035,1.7043,1.7149,1.7164,1.71,1.7287,1.7216,1.7231,1.7274,1.7296,1.7313,1.7308,1.7024,0,0,0,0,0,1.6855,1.6916,1.693,1.703,1.7047,1.7045,1.7078,1.7063,1.7096,1.7109,1.7125,1.7159,1.7218,1.7258,1.7313,1.7438,1.7446,1.7497,1.7515,1.7529,1.7543,1.7612,1.7635,1.7385,1.7384,1.7384,0,0,1.6923,1.6941,1.6981,1.7048,1.707,1.7135,1.7057,1.7128,1.7177,1.7121,1.7215,1.7228,1.7266,1.7379,1.743,1.7395,1.7613,1.7543,1.7554,1.756,1.7625,1.7649,1.767,1.7392,1.7391,1.7389,0,0,1.7078,1.7097,1.7182,1.7207,1.7242,1.724,1.7261,1.7287,1.7293,1.7388,1.7348,1.7406,1.7508,1.7536,1.7564,1.7732,1.7699,1.775,1.7843,1.791,1.793,1.7947,1.8008,1.803,1.7764,1.7764,1.7764,0,1.7157,1.7251,1.723,1.7305,1.7336,1.7287,1.7375,1.74,1.7452,1.7476,1.7435,1.7562,1.7584,1.7704,1.7745,1.7769,1.7793,1.7747,1.7928,1.7946,1.7962,1.8019,1.8042,1.777,1.7769,1.7769,1.7768,0,1.7348,1.7414,1.7479,1.7529,1.7568,1.7648,1.7641,1.7683,1.7665,1.7668,1.7766,1.7791,1.785,1.7877,1.7861,1.7996,1.7973,1.7931,1.7859,1.7992,1.8046,1.8068,1.7779,1.7777,1.7775,1.7773,0,0,1.7559,1.7596,1.7621,1.7643,1.7679,1.7731,1.781,1.7867,1.7904,1.7942,1.8009,1.8097,1.8058,1.809,1.8077,1.8136,1.8268,1.8086,1.8087,1.812,1.8421,1.8452,1.8478,1.8246,1.8251,1.8254,1.8418,0,1.7715,1.7851,1.7835,1.7965,1.8027,1.7982,1.8052,1.8082,1.8088,1.8142,1.8148,1.8211,1.8155,1.8174,1.823,1.824,1.8328,1.8228,1.831,1.8314,1.8303,1.8506,1.854,1.8693,1.8439,1.8442,1.8445,0,1.7916,1.796,1.8097,1.8124,1.8149,1.8211,1.8263,1.8315,1.835,1.8349,1.8385,1.8362,1.8443,1.8369,1.8482,1.8414,1.8447,1.8457,1.8463,1.847,1.8387,1.852,1.8742,1.8765,1.8478,1.8475,1.8473,0,1.8057,1.8151,1.8245,1.8265,1.8299,1.8344,1.8361,1.8391,1.8427,1.8472,1.8496,1.8551,1.8582,1.8626,1.8618,1.8565,1.8735,1.8659,1.8738,1.8739,1.8776,1.8774,1.9007,1.8797,1.8796,1.8796,1.8795,0,1.8234,1.832,1.8309,1.8366,1.8462,1.8443,1.8538,1.8549,1.8577,1.8637,1.8603,1.8661,1.8647,1.8705,1.87,1.8796,1.881,1.8813,1.8811,1.8817,1.8816,1.8838,1.8828,1.8802,1.8801,1.8799,1.8798,0,1.8408,1.8404,1.8503,1.8527,1.8535,1.8604,1.8625,1.8681,1.8683,1.8761,1.8778,1.8783,1.885,1.8847,1.8923,1.8919,1.9037,1.9022,1.9025,1.9022,1.9101,1.9094,1.9357,1.9391,1.9158,1.9161,1.9162,0,1.8521,1.8586,1.8616,1.8654,1.8673,1.8734,1.877,1.8755,1.8794,1.8839,1.889,1.8953,1.9003,1.9112,1.9124,1.9182,1.9169,1.9257,1.9178,1.9182,1.9172,1.9168,1.9175,1.9273,1.9276,1.9278,1.928,0,1.8723,1.8718,1.877,1.8823,1.8866,1.8907,1.8945,1.8978,1.8967,1.9014,1.9081,1.9119,1.9197,1.9261,1.9317,1.9336,1.9308,1.9304,1.9326,1.9333,1.9332,1.9334,1.9068,1.9299,1.9297,1.9295,1.9294,1.9293,1.887,1.8926,1.8956,1.9016,1.9043,1.9079,1.9132,1.9141,1.9197,1.9257,1.9246,1.9322,1.9357,1.9429,1.9453,1.9514,1.9483,1.9513,1.9521,1.953,1.9539,1.9322,1.9524,1.9523,1.9523,1.9522,1.9522,0,1.9071,1.9088,1.9144,1.9197,1.9245,1.9211,1.9251,1.9294,1.9361,1.9395,1.9444,1.9523,1.9585,1.9602,1.9662,1.9708,1.9696,1.9724,1.9721,1.9726,1.9563,1.9538,1.9733,1.9733,1.9733,1.9733,1.9733,1.9732,1.9181,1.9274,1.9272,1.9379,1.9396,1.9469,1.9495,1.9529,1.9555,1.9644,1.9695,1.9705,1.9733,1.9795,1.9852,1.9855,1.9879,1.9913,1.9912,1.9759,1.9738,1.9717,1.9694,1.9918,1.9919,2.007,2.0072,2.0073]},{"header":{"parameterUnit":"m.s-1","parameterCategory":1,"la1":30.2991,"la2":30.254,"lo1":-89.0895,"lo2":-89.0444,"dy":0.0017,"dx":0.0017,"nx":28,"ny":28,"refTime":"2024-09-30T03:00:00:Z","depth":0,"parameterNumber":3,"parameterNumberName":"V-component_of_WINDS"},"data":[0,0,0,0,0,0,0,0,0,0,0,0,0,0,0,0,0,0,0,0,0,0,0,0,0,0,0,0,0,0,0,0,0,0,0,0,0,0,0,0,0,0,0,0,0,0,0,0,0,0,0,0,0,0,0,0,0,0,-0.6039,-0.604,0,-0.6133,-0.6134,-0.6136,-0.6224,-0.6225,-0.6226,-0.6227,-0.6322,-0.6324,-0.6325,0,0,0,0,0,0,0,0,0,0,0,0,0,-0.5931,-0.5933,-0.6039,-0.604,-0.6041,-0.6133,-0.6135,-0.6136,-0.6223,-0.6225,-0.6226,-0.6227,-0.6322,-0.6323,-0.6325,0,0,0,0,0,0,0,0,0,0,0,0,0,-0.5997,-0.5933,-0.6038,-0.6096,-0.6102,-0.6133,-0.6135,-0.6136,-0.6223,-0.6225,-0.6226,-0.6228,-0.6321,-0.6323,-0.6325,-0.6307,0,0,-0.6332,-0.6333,0,0,0,0,0,0,0,0,-0.5993,-0.6001,-0.6086,-0.6092,-0.6099,-0.6168,-0.6132,-0.6193,-0.6223,-0.6177,-0.6227,-0.6229,-0.6269,-0.6276,-0.629,-0.6311,-0.6315,-0.6333,-0.6334,-0.6335,-0.6336,0,0,0,0,0,0,0,-0.5989,-0.5997,-0.6076,-0.6087,-0.6095,-0.6116,-0.6127,-0.6144,-0.6213,-0.6181,-0.6188,-0.6198,-0.6273,-0.6288,-0.6293,-0.6317,-0.6333,-0.6335,-0.6336,-0.6337,-0.6326,-0.6324,0,0,0,0,0,0,-0.5976,-0.5993,-0.6073,-0.6079,-0.6049,-0.6117,-0.6129,-0.6144,-0.6213,-0.6225,-0.6196,-0.6202,-0.6283,-0.629,-0.6297,-0.6279,-0.6335,-0.6337,-0.6338,-0.6328,-0.6326,-0.6324,0,0,0,0,0,0,-0.5973,-0.5982,-0.6069,-0.6038,-0.6051,-0.6117,-0.6133,-0.6145,-0.616,-0.6225,-0.6237,-0.6199,-0.6285,-0.6294,-0.6304,-0.6283,-0.6338,-0.634,-0.633,-0.6327,-0.6325,-0.6242,0,0,0,0,0,0,-0.5969,-0.598,-0.5974,-0.6037,-0.6052,-0.6075,-0.6132,-0.6146,-0.6164,-0.6172,-0.623,-0.6241,-0.6287,-0.63,-0.6306,-0.6287,-0.6342,-0.6332,-0.6328,-0.6326,-0.6247,-0.6237,-0.6229,0,0,0,0,0,-0.5965,-0.5947,-0.5974,-0.5983,-0.6046,-0.6073,-0.6082,-0.6135,-0.6162,-0.6156,-0.6197,-0.6239,-0.6285,-0.63,-0.6308,-0.6289,-0.6333,-0.6329,-0.6326,-0.6251,-0.6239,-0.6229,0,0,0,0,0,0,-0.588,-0.5957,-0.5987,-0.5989,-0.6024,-0.6088,-0.6083,-0.6121,-0.6149,-0.6155,-0.6219,-0.6231,-0.6234,-0.6263,-0.6279,-0.6274,-0.6315,-0.6312,-0.6255,-0.6244,-0.6235,-0.6228,-0.6344,0,0,0,0,0,-0.5862,-0.5878,-0.5944,-0.5939,-0.5956,-0.6016,-0.603,-0.6068,-0.6106,-0.6122,-0.6164,-0.6199,-0.6222,-0.6235,-0.6259,-0.6252,-0.6265,-0.6243,-0.6234,-0.6226,-0.6223,-0.622,-0.6211,-0.6312,-0.6312,-0.6312,0,0,-0.5824,-0.5868,-0.5874,-0.5923,-0.5955,-0.597,-0.6028,-0.6041,-0.6052,-0.6124,-0.6135,-0.6167,-0.6211,-0.6212,-0.6215,-0.6237,-0.6198,-0.6222,-0.6215,-0.6216,-0.6216,-0.6206,-0.6197,-0.6309,-0.631,-0.631,0,0,-0.5762,-0.5797,-0.5797,-0.5827,-0.5875,-0.5915,-0.5914,-0.5973,-0.5997,-0.601,-0.6063,-0.6077,-0.6115,-0.6143,-0.6163,-0.611,-0.615,-0.6117,-0.6069,-0.6065,-0.6057,-0.605,-0.6031,-0.6023,-0.6113,-0.6113,-0.6113,0,-0.5708,-0.5733,-0.5791,-0.5801,-0.5821,-0.5886,-0.5886,-0.5912,-0.5965,-0.5976,-0.6,-0.6048,-0.6082,-0.609,-0.6077,-0.6091,-0.6092,-0.611,-0.6054,-0.6048,-0.6042,-0.6024,-0.6016,-0.6109,-0.6109,-0.611,-0.611,0,-0.5665,-0.5681,-0.5675,-0.5724,-0.5743,-0.5747,-0.5805,-0.5817,-0.5853,-0.589,-0.5902,-0.5945,-0.5979,-0.5984,-0.6019,-0.5996,-0.6008,-0.6042,-0.6083,-0.6027,-0.6011,-0.6005,-0.6102,-0.6104,-0.6105,-0.6106,0,0,-0.5552,-0.5632,-0.5629,-0.5652,-0.5708,-0.5722,-0.5729,-0.5762,-0.577,-0.5804,-0.5811,-0.5841,-0.5872,-0.5894,-0.5933,-0.593,-0.5884,-0.5964,-0.5966,-0.5947,-0.586,-0.5834,-0.5825,-0.5911,-0.591,-0.5909,-0.5856,0,-0.5498,-0.5515,-0.5567,-0.5568,-0.5583,-0.5645,-0.5651,-0.5686,-0.572,-0.5738,-0.5776,-0.5796,-0.5836,-0.585,-0.585,-0.589,-0.5868,-0.5895,-0.5916,-0.5917,-0.5902,-0.5817,-0.5789,-0.5737,-0.585,-0.5849,-0.5849,0,-0.5439,-0.5468,-0.547,-0.5525,-0.5534,-0.5538,-0.5572,-0.5588,-0.5629,-0.5654,-0.5678,-0.5721,-0.5731,-0.577,-0.5784,-0.5801,-0.5813,-0.5834,-0.5833,-0.5836,-0.5878,-0.5816,-0.5722,-0.5713,-0.584,-0.584,-0.5841,0,-0.5354,-0.5395,-0.5401,-0.5419,-0.5484,-0.5485,-0.5512,-0.5554,-0.557,-0.56,-0.5611,-0.5641,-0.5657,-0.5679,-0.5728,-0.5753,-0.5736,-0.5779,-0.5756,-0.5755,-0.5749,-0.5748,-0.5654,-0.5758,-0.5759,-0.5759,-0.5759,0,-0.5289,-0.5287,-0.5364,-0.5368,-0.5367,-0.5427,-0.5425,-0.5458,-0.5494,-0.5505,-0.556,-0.5569,-0.5635,-0.5651,-0.569,-0.5694,-0.5701,-0.5721,-0.5732,-0.5716,-0.5713,-0.5724,-0.5728,-0.5757,-0.5757,-0.5758,-0.5758,0,-0.5194,-0.5246,-0.5257,-0.5317,-0.5332,-0.5329,-0.538,-0.5386,-0.5424,-0.5436,-0.5442,-0.5502,-0.5523,-0.5575,-0.5611,-0.5637,-0.563,-0.565,-0.5616,-0.5623,-0.5596,-0.5597,-0.5504,-0.5494,-0.5606,-0.5605,-0.5604,0,-0.5148,-0.5149,-0.5209,-0.522,-0.5245,-0.5262,-0.5279,-0.5337,-0.5352,-0.5397,-0.5397,-0.5423,-0.5446,-0.5477,-0.5523,-0.555,-0.5569,-0.5535,-0.5574,-0.5557,-0.5567,-0.5566,-0.5566,-0.5526,-0.5524,-0.5523,-0.5522,0,-0.5061,-0.5086,-0.5109,-0.5139,-0.5158,-0.5184,-0.5214,-0.522,-0.5285,-0.5299,-0.5322,-0.534,-0.5376,-0.54,-0.5434,-0.5461,-0.5501,-0.551,-0.5506,-0.5489,-0.5469,-0.5478,-0.5592,-0.5511,-0.5512,-0.5513,-0.5514,-0.5514,-0.4989,-0.4992,-0.5034,-0.5057,-0.5085,-0.5112,-0.5119,-0.5158,-0.5178,-0.5212,-0.5245,-0.5263,-0.5303,-0.5352,-0.5377,-0.5391,-0.5413,-0.5407,-0.5405,-0.5402,-0.5395,-0.5467,-0.5398,-0.5398,-0.5399,-0.5399,-0.5399,0,-0.4904,-0.4934,-0.4954,-0.4994,-0.5011,-0.5049,-0.5084,-0.5095,-0.5111,-0.5145,-0.5167,-0.5192,-0.5215,-0.5263,-0.529,-0.5293,-0.5312,-0.5298,-0.5298,-0.5303,-0.5375,-0.5375,-0.5282,-0.5282,-0.5282,-0.5282,-0.5282,-0.5282,-0.4861,-0.4867,-0.4897,-0.4917,-0.4948,-0.4967,-0.4983,-0.5007,-0.5034,-0.506,-0.508,-0.5111,-0.5149,-0.518,-0.5203,-0.5216,-0.5223,-0.5203,-0.5222,-0.5287,-0.5298,-0.5309,-0.5309,-0.5204,-0.5204,-0.5149,-0.5148,-0.5148]}]]